Gilgo Beach, New York, United States
Lat: 40.62N, Lon: 73.4W
Wx Zone: NYZ080
Local Info
Past Weather Observations for Today

NOTE: This archive is for the closest National Weather Service station to Gilgo Beach. Information may differ from the station used for current weather conditions.

Click here for Long-term Archive

Time Weather Temperature Dewpoint Humidity Pressure Winds Precip Visibility
21:53
Overcast
79°F / 26°C 68°F / 20°C 70% 29.89 in
(1012 mb)
NW 3.5 mph
(NW 6 kph)
0.00 in
(0.00 mm)
10SM
20:53
Clear
81°F / 27°C 66°F / 19°C 62% 29.89 in
(1012 mb)
W 4.6 mph
(W 7 kph)
- 10SM
19:53
Clear
81°F / 27°C 68°F / 20°C 66% 29.89 in
(1012 mb)
W 5.8 mph
(W 9 kph)
- 10SM
18:53
Clear
81°F / 27°C 70°F / 21°C 70% 29.89 in
(1012 mb)
SSW 6.9 mph
(SSW 11 kph)
- 10SM
18:00
Partly Cloudy
81°F / 27°C 75°F / 24°C 84% 29.89 in
(1012 mb)
SW 11.5 mph
(SW 19 kph)
- 10SM
17:53
Mostly Cloudy
81°F / 27°C 75°F / 24°C 84% 29.89 in
(1012 mb)
SW 13.8 mph
(SW 22 kph)
- 10SM
17:35
Mostly Cloudy
81°F / 27°C 75°F / 24°C 84% 29.89 in
(1012 mb)
SW 12.7 mph
(SW 20 kph)
- 10SM
17:34
Partly Cloudy
81°F / 27°C 75°F / 24°C 84% 29.89 in
(1012 mb)
SW 11.5 mph
(SW 19 kph)
- 10SM
16:53
Clear
82°F / 28°C 73°F / 23°C 74% 29.89 in
(1012 mb)
SSE 12.7 mph
(SSE 20 kph)
- 10SM
15:53
Clear
84°F / 29°C 73°F / 23°C 70% 29.89 in
(1012 mb)
SW 12.7 mph
(SW 20 kph)
- 10SM
14:53
Clear
84°F / 29°C 73°F / 23°C 70% 29.89 in
(1012 mb)
S 12.7 mph
(S 20 kph)
- 10SM
13:53
Clear
88°F / 31°C 73°F / 23°C 62% 29.89 in
(1012 mb)
S 15 mph
(S 24 kph)
- 10SM
12:53
Clear
90°F / 32°C 70°F / 21°C 52% 29.89 in
(1012 mb)
SW 11.5 mph
(SW 19 kph)
- 10SM
11:53
Partly Cloudy
90°F / 32°C 70°F / 21°C 52% 29.92 in
(1013 mb)
S 10.4 mph
(S 17 kph)
- 10SM
10:53
Mostly Cloudy
88°F / 31°C 66°F / 19°C 49% 29.92 in
(1013 mb)
SW 11.5 mph
(SW 19 kph)
- 10SM
09:53
Partly Cloudy
88°F / 31°C 64°F / 18°C 46% 29.92 in
(1013 mb)
SSE 3.5 mph
(SSE 6 kph)
- 10SM
08:53
Clear
88°F / 31°C 70°F / 21°C 55% 29.92 in
(1013 mb)
Calm - 10SM
07:53
Clear
84°F / 29°C 73°F / 23°C 70% 29.95 in
(1014 mb)
Calm - 3SM
07:02
Clear
79°F / 26°C 75°F / 24°C 89% 29.95 in
(1014 mb)
Calm - 3SM
06:53
Clear
Fog And Mist
79°F / 26°C 75°F / 24°C 89% 29.92 in
(1013 mb)
Calm - 2 1/2SM
06:29
Clear
Fog And Mist
77°F / 25°C 75°F / 24°C 94% 29.92 in
(1013 mb)
Calm - 2 1/2SM
06:11
Clear
Fog And Mist
75°F / 24°C 75°F / 24°C 100% 29.92 in
(1013 mb)
Calm - 3SM
05:53
Partly Cloudy
Fog And Mist
75°F / 24°C 73°F / 23°C 94% 29.92 in
(1013 mb)
SSE 4.6 mph
(SSE 7 kph)
- 2 1/2SM
05:35
Partly Cloudy
Fog And Mist
75°F / 24°C 73°F / 23°C 94% 29.92 in
(1013 mb)
Calm - 3SM
04:53
Overcast
Fog And Mist
75°F / 24°C 73°F / 23°C 94% 29.92 in
(1013 mb)
Calm - 2 1/2SM
04:07
Mostly Cloudy
Fog And Mist
75°F / 24°C 73°F / 23°C 94% 29.92 in
(1013 mb)
Calm - 6SM
03:53
Partly Cloudy
Fog And Mist
75°F / 24°C 73°F / 23°C 94% 29.92 in
(1013 mb)
Calm - 6SM
03:37
Partly Cloudy
75°F / 24°C 73°F / 23°C 94% 29.92 in
(1013 mb)
SW 3.5 mph
(SW 6 kph)
- 7SM
03:11
Overcast
75°F / 24°C 75°F / 24°C 100% 29.92 in
(1013 mb)
SSW 4.6 mph
(SSW 7 kph)
- 7SM
02:53
Mostly Cloudy
75°F / 24°C 75°F / 24°C 100% 29.92 in
(1013 mb)
SSW 3.5 mph
(SSW 6 kph)
- 7SM
01:53
Mostly Cloudy
77°F / 25°C 75°F / 24°C 94% 29.92 in
(1013 mb)
SW 8.1 mph
(SW 13 kph)
- 8SM
01:47
Mostly Cloudy
75°F / 24°C 75°F / 24°C 100% 29.92 in
(1013 mb)
Calm - 10SM
01:42
Partly Cloudy
75°F / 24°C 73°F / 23°C 94% 29.92 in
(1013 mb)
SW 5.8 mph
(SW 9 kph)
- 10SM
00:53
Partly Cloudy
75°F / 24°C 73°F / 23°C 94% 29.92 in
(1013 mb)
SW 4.6 mph
(SW 7 kph)
- 10SM
Time Weather Temperature Dewpoint Humidity Pressure Winds Precip Visibility


Weather for websites

WeatherForYou.com, LLC is not responsible for any damages or problems caused by this service. Current weather conditions are obtained from the closest station including government and personal stations which may have varying degrees of accuracy. Weather forecasts are derived from the NOAA NDFD. Like all things, this site belongs to Jesus Christ... He just trusts us to maintain it. If you have any questions or comments email webmaster@weatherforyou.com

Copyright © 2016, WeatherForYou.com LLC. All rights reserved.